Regional Weather Roundup
Issued by NWS

Home | Current Version | Previous Version | Graphics & Text | Print | Product List | Glossary On
Versions: 1 2 3 4 5 6 7 8 9 10 11 12 13 14 15 16 17 18 19 20 21 22 23 24 25 26 27 28 29 30 31 32 33 34 35 36 37 38 39 40 41 42 43 44 45 46 47 48 49 50
000
ASUS45 KSLC 211610
RWRUT

UTAH REGIONAL WEATHER ROUNDUP
NATIONAL WEATHER SERVICE SALT LAKE CITY UT
1000 AM MDT MON MAY 21 2018

UTZ001>011-023>025-211700-

NORTHERN UTAH

CITY           SKY/WX    TMP DP  RH WIND       PRES   REMARKS
BRIGHAM CITY   SUNNY     64  42  44 N3        29.93S
DUGWAY         PTSUNNY   64  47  55 S2        29.93S
HILL AFB       NOT AVBL
LOGAN          SUNNY     59  47  64 NW3       29.95F
OGDEN          SUNNY     66  44  45 N9        29.92R
SALT LAKE CITY PTSUNNY   68  44  42 CALM      29.91R
TOOELE VALLEY  SUNNY     66  45  45 CALM      29.93S
WENDOVER       SUNNY     66  44  45 SW5       29.93S
HEBER CITY       N/A     59  37  44 CALM      29.98F
WEST JORDAN    SUNNY     66  44  44 CALM      29.94S

$$

UTZ011>015-024>027-211700-

CENTRAL/NORTHEAST UTAH

CITY           SKY/WX    TMP DP  RH WIND       PRES   REMARKS
PROVO AIRPORT  PTSUNNY   66  46  48 VRB5      29.94S
MOAB/CANYONLAN MOSUNNY   70  32  24 E9        29.93S
DELTA          PTSUNNY   63  41  45 CALM      29.93S
PRICE          SUNNY     63  37  38 S5        30.00R
ROOSEVELT      SUNNY     63  37  39 E3        30.04S
VERNAL         SUNNY     63  40  42 VRB3      30.02S

$$

UTZ013>016-019>022-027-211700-

SOUTHERN UTAH

CITY           SKY/WX    TMP DP  RH WIND       PRES   REMARKS
BRYCE CANYON   PTSUNNY   58  29  33 SE8       30.07F
CEDAR CITY     CLOUDY    61  38  42 VRB3      29.93S
MILFORD        PTSUNNY   66  40  38 N10       29.91F
ST GEORGE      SUNNY     72  28  19 S3        29.83S
HANKSVILLE     PTSUNNY   70  36  28 NE6       29.96F
BLANDING         N/A     69  25  19 SE10G16   30.12S

$$

REGIONAL REPORTS     COLORADO/ARIZONA

CITY           SKY/WX    TMP DP  RH WIND       PRES   REMARKS
CRAIG, CO      SUNNY     64  39  39 E8        30.06F
GRAND JUNCTION SUNNY     67  37  33 SE10      29.98F
RIFLE, CO      SUNNY     61  36  39 CALM      30.03F
MONTROSE, CO   SUNNY     67  34  29 N12       30.04F
CORTEZ, CO     SUNNY     72  29  20 SE14G22   30.05F
COLORADO CITY    N/A     72  28  20 SE8       29.96R
PAGE, AZ       PTSUNNY   72  26  18 N6        29.92S
GRAND CANYON   CLOUDY    61  20  20 SE10      30.03S
KINGMAN, AZ    CLOUDY    74  29  19 SE20      29.83S
FLAGSTAFF, AZ  CLOUDY    56  23  27 S7        30.07S

$$

REGIONAL REPORTS    NEVADA/IDAHO/WYOMING

CITY           SKY/WX    TMP DP  RH WIND       PRES   REMARKS
LAS VEGAS, NV  CLOUDY    75  40  28 S5        29.75R
ELY, NY        CLOUDY    52  45  77 E5        29.99S
ELKO, NV       MOSUNNY   58  46  64 VRB5      29.95R
POCATELLO, ID  MOSUNNY   59  52  77 W5        29.98F
BURLEY, ID     MOSUNNY   61  50  67 CALM      29.96S
FORT BRIDGER,    N/A     58  40  51 NE5       30.11S
EVANSTON, WY   SUNNY     57  37  47 CALM      30.06S
ROCK SPRINGS,  MOSUNNY   59  39  47 CALM      30.07S
KEMMERER, WY   SUNNY     59  37  44 N6        30.09F

$$



USA.gov is the U.S. government's official web portal to all federal, state and local government web resources and services.